Vorticity
7 7 7 6 8 5 8 12 4 5 13 -2 9 8 8 9 9 8 6 6 6 7 4 8 10 10 13 12 11 10 8 5 3 7 -0 7 10 6 3 11 3 -1 7 1 6
10 9 8 9 11 14 7 0 25 3 1 8 2 9 7 10 7 6 7 7 8 16 11 4 4 12 17 15 12 10 9 16 1 11 13 16 21 8 3 3 9 4 7 3 7
11 11 10 10 10 12 6 8 12 -10 3 -8 13 7 11 7 11 7 8 14 -5 6 14 17 15 10 14 14 9 8 6 9 6 8 7 9 12 8 13 15 2 8 9 -2 4
14 12 13 10 13 10 16 -7 7 9 6 5 9 17 13 8 5 19 6 -4 7 10 11 9 7 10 12 2 8 5 9 13 12 10 11 8 12 8 7 7 16 14 1 7 -7
13 14 13 11 12 11 11 19 3 -1 19 12 20 6 11 6 4 1 5 5 5 14 10 8 11 12 11 13 8 6 9 7 5 2 2 3 5 8 10 9 4 7 16 17 6
13 13 14 13 11 13 15 22 8 3 -13 -9 -4 -2 3 11 11 7 7 13 10 11 9 12 9 5 3 7 6 -1 6 7 5 3 6 5 6 8 5 4 7 11 13 12 13
14 15 10 16 10 16 29 6 19 16 4 13 -7 10 28 13 15 7 8 1 10 8 6 5 6 6 6 10 15 10 11 13 16 14 13 17 6 5 6 8 7 8 9 11 14
12 17 8 15 12 22 0 17 -3 22 10 20 7 14 12 9 11 7 1 -6 7 -2 9 9 7 9 8 11 3 6 10 11 13 15 20 17 13 13 23 16 15 16 17 15 18
16 19 14 8 12 31 -11 -8 10 -5 21 10 16 12 8 7 5 -2 -2 15 14 11 12 15 11 8 8 8 9 20 2 10 23 12 8 -1 3 0 1 4 6 6 10 14 13
14 17 14 5 6 29 12 23 -20 27 21 -1 23 6 -2 21 15 -2 11 11 7 13 10 7 10 11 13 9 2 -9 2 -0 0 -18 -9 4 12 12 16 15 17 24 24 8 14
17 12 21 9 4 27 3 -5 22 11 4 17 21 -1 26 12 1 7 9 5 12 6 5 11 8 7 6 8 7 6 3 1 14 4 21 14 10 2 12 13 17 14 17 24 35
14 9 16 9 25 33 -0 13 -8 16 8 22 4 19 8 3 2 12 8 13 11 12 8 3 8 8 6 7 5 4 -0 7 8 -8 2 8 12 20 45 33 22 17 8 8 14
14 9 19 19 28 31 -4 3 22 -3 -8 33 4 7 7 -5 19 7 9 11 8 5 6 4 3 -4 -5 2 2 9 3 -3 9 2 16 16 32 19 -10 14 5 8 14 13 12
16 16 42 19 13 20 10 6 6 -1 3 19 11 13 -1 18 0 12 10 11 4 15 11 19 27 11 6 5 13 3 26 5 4 21 -6 -36 -13 19 23 1 -4 29 22 24 29
17 14 21 11 23 20 6 3 4 6 1 12 10 11 14 -3 27 9 6 13 9 3 3 2 9 5 0 14 10 -3 16 6 1 11 28 42 9 -21 18 29 -2 22 22 15 9
24 4 1 5 30 26 30 31 47 5 19 13 12 12 10 5 2 6 10 9 12 16 14 25 8 15 15 11 25 22 17 33 33 27 17 23 4 -6 -18 5 15 36 12 13 1
12 7 14 -2 28 52 32 0 -12 16 5 26 11 8 13 8 8 10 1 8 7 16 -2 19 13 0 -1 5 18 -9 30 10 11 8 -5 1 48 -21 -16 36 40 9 34 6 10
8 24 -13 16 13 12 -0 -14 12 17 26 23 8 13 9 3 7 3 7 5 14 6 12 2 10 6 7 18 2 23 14 6 13 6 1 9 -19 1 -13 17 38 33 20 22 2
13 9 -5 24 23 12 -17 17 15 10 14 23 3 -6 7 3 14 4 5 6 7 13 19 9 12 17 7 10 13 7 10 5 7 18 10 -1 -2 35 16 24 22 12 15 22 8
17 -0 12 27 16 -1 12 19 16 15 21 -13 10 13 19 5 11 7 7 6 12 8 9 1 11 11 18 1 4 22 23 8 15 10 14 4 17 -37 7 22 4 62 14 5 17
2 2 15 30 -4 11 -7 18 7 20 -9 4 12 15 18 3 19 0 12 -1 23 4 10 14 13 10 11 8 19 25 10 28 19 14 14 8 -25 12 12 21 26 40 17 18 23
-7 -15 16 -4 -9 -7 -2 7 18 8 6 4 8 16 13 10 12 4 15 9 10 12 12 10 10 8 9 13 0 2 8 18 28 -19 12 17 -38 15 8 18 13 48 33 29 10
17 4 5 15 -1 10 4 6 19 16 4 3 17 13 5 5 -2 5 10 11 20 17 13 25 6 11 -4 -17 9 9 28 -1 9 25 3 29 -24 10 7 9 33 22 47 36 31
13 6 17 11 13 3 5 8 23 11 11 15 20 10 9 14 22 21 5 12 6 5 9 4 20 36 35 25 27 1 14 12 7 21 -15 13 7 4 3 5 18 32 24 22 17
9 8 14 15 2 8 21 19 12 7 7 3 14 10 -3 7 8 6 6 7 7 8 2 7 -0 9 -1 5 16 2 5 4 3 18 18 -3 6 9 11 7 9 21 30 60 42
8 13 20 3 4 9 13 15 11 5 12 15 12 13 13 19 21 8 11 4 16 10 10 -2 9 5 -11 -19 -18 2 8 6 2 13 1 9 -2 8 8 6 7 16 14 14 6
15 5 2 2 6 12 14 8 6 3 7 11 9 8 7 11 10 11 16 15 17 9 6 0 1 3 9 7 10 -16 3 8 5 3 7 2 4 6 9 10 6 9 13 10 12
Height
3067 3066 3066 3066 3067 3068 3067 3066 3067 3068 3069 3071 3072 3071 3072 3073 3074 3075 3076 3078 3077 3077 3077 3079 3079 3080 3082 3083 3083 3084 3085 3082 3084 3087 3088 3092 3093 3096 3095 3096 3101 3103 3107 3110 3109
3060 3059 3059 3059 3060 3062 3062 3062 3062 3063 3063 3066 3068 3068 3068 3069 3070 3071 3073 3073 3072 3072 3073 3074 3074 3074 3075 3076 3077 3078 3076 3077 3080 3083 3083 3085 3086 3088 3088 3088 3092 3094 3098 3102 3102
3053 3052 3052 3052 3052 3053 3055 3056 3057 3059 3060 3061 3063 3064 3063 3066 3067 3067 3069 3068 3068 3069 3069 3069 3069 3070 3070 3071 3072 3072 3071 3075 3077 3079 3078 3077 3078 3080 3079 3081 3086 3088 3090 3096 3095
3047 3045 3044 3045 3044 3045 3047 3050 3051 3053 3054 3056 3058 3059 3059 3061 3066 3063 3064 3064 3065 3064 3065 3064 3066 3067 3067 3067 3069 3068 3068 3071 3072 3073 3072 3070 3071 3070 3071 3071 3077 3079 3082 3084 3087
3040 3040 3038 3037 3037 3038 3039 3043 3045 3047 3047 3050 3053 3054 3055 3057 3060 3060 3059 3060 3059 3061 3062 3060 3062 3062 3062 3063 3064 3062 3064 3064 3065 3065 3065 3065 3064 3064 3062 3067 3068 3070 3072 3074 3079
3034 3033 3031 3031 3031 3031 3032 3035 3038 3040 3042 3044 3047 3050 3052 3054 3055 3056 3056 3056 3057 3058 3058 3058 3059 3059 3058 3059 3060 3059 3058 3059 3059 3060 3061 3058 3056 3056 3053 3058 3058 3058 3058 3061 3065
3027 3026 3026 3025 3025 3026 3028 3030 3032 3034 3039 3038 3042 3045 3048 3050 3052 3052 3052 3055 3056 3056 3056 3056 3056 3056 3055 3057 3055 3054 3054 3054 3056 3057 3053 3053 3039 3041 3046 3048 3045 3046 3046 3048 3051
3020 3020 3021 3020 3020 3022 3023 3025 3026 3030 3034 3034 3036 3041 3044 3045 3048 3049 3049 3051 3052 3053 3053 3052 3052 3053 3053 3053 3051 3051 3050 3048 3050 3049 3048 3048 3020 3037 3041 3038 3035 3036 3035 3035 3037
3013 3014 3013 3014 3015 3016 3019 3022 3023 3027 3030 3030 3033 3036 3039 3042 3044 3045 3047 3048 3049 3049 3049 3048 3048 3049 3049 3049 3048 3046 3045 3045 3043 3045 3043 3042 3024 3029 3030 3028 3024 3024 3024 3024 3024
3006 3006 3006 3008 3009 3012 3015 3018 3021 3023 3025 3027 3030 3038 3037 3039 3040 3043 3043 3044 3046 3046 3047 3047 3045 3045 3045 3045 3045 3043 3042 3042 3040 3040 3039 3032 3019 3019 3021 3020 3015 3013 3012 3011 3013
2999 2998 2998 3001 3003 3007 3011 3015 3018 3023 3023 3026 3029 3031 3033 3037 3038 3040 3041 3043 3043 3044 3044 3043 3042 3042 3044 3043 3041 3039 3039 3037 3036 3037 3032 3021 3010 3007 3010 3007 3004 3003 3002 3000 3000
2992 2991 2990 2994 2996 3000 3006 3010 3012 3020 3023 3025 3027 3029 3033 3035 3037 3039 3040 3042 3042 3042 3041 3042 3040 3042 3042 3041 3039 3038 3035 3031 3029 3030 3029 3018 2996 3001 2998 2996 2994 2994 2992 2991 2992
2988 2985 2987 2989 2991 2996 3003 3007 3012 3017 3022 3025 3027 3030 3033 3035 3036 3037 3039 3040 3041 3040 3039 3040 3042 3040 3038 3037 3036 3034 3033 3029 3028 3024 3021 3013 2995 2989 2994 2992 2990 2988 2986 2984 2982
2983 2984 2984 2988 2993 2995 3000 3005 3009 3016 3022 3026 3027 3030 3033 3034 3036 3037 3038 3041 3038 3039 3040 3039 3038 3037 3036 3034 3034 3029 3028 3026 3025 3024 3017 3015 3000 2982 2985 2987 2986 2982 2977 2975 2976
2982 2984 2986 2990 2991 2993 2999 3002 3008 3017 3022 3027 3027 3029 3031 3035 3036 3037 3038 3038 3038 3039 3040 3039 3036 3034 3033 3033 3032 3026 3024 3021 3020 3019 3016 3010 3011 2984 2984 2978 2975 2974 2971 2969 2971
2983 2987 2989 2992 2994 2996 2999 3006 3011 3017 3019 3024 3027 3029 3032 3033 3036 3037 3037 3038 3037 3036 3035 3034 3034 3033 3031 3030 3028 3024 3020 3017 3016 3014 3014 3006 3006 2987 2984 2978 2966 2964 2964 2965 2966
2986 2989 2991 2994 2996 2997 3001 3008 3013 3014 3022 3026 3027 3029 3032 3034 3035 3037 3038 3038 3038 3037 3035 3032 3031 3031 3030 3028 3025 3023 3019 3017 3018 3018 3012 3004 3002 2992 2988 2976 2965 2959 2959 2959 2961
2990 2992 2996 2999 3002 3003 3007 3012 3013 3020 3022 3025 3027 3030 3033 3034 3036 3037 3039 3039 3037 3037 3034 3032 3031 3029 3027 3026 3024 3021 3020 3018 3023 3014 3009 3006 3003 2992 2986 2975 2964 2958 2955 2956 2957
2995 2998 3001 3003 3006 3009 3012 3012 3019 3022 3024 3025 3029 3031 3033 3034 3037 3039 3039 3038 3037 3035 3035 3032 3030 3028 3026 3024 3023 3019 3019 3019 3016 3011 3010 3007 2999 2991 2984 2973 2964 2956 2951 2951 2952
3000 3004 3005 3006 3009 3012 3014 3016 3021 3023 3025 3028 3030 3032 3033 3035 3037 3038 3038 3038 3037 3035 3034 3034 3030 3028 3026 3023 3022 3020 3020 3019 3016 3015 3014 3006 3001 2996 2980 2971 2964 2954 2949 2947 2946
3008 3010 3009 3009 3013 3016 3017 3020 3023 3025 3027 3030 3031 3033 3034 3036 3036 3037 3038 3038 3036 3035 3034 3033 3032 3031 3026 3024 3022 3022 3020 3018 3018 3018 3014 3010 3006 2998 2987 2975 2964 2953 2947 2943 2943
3014 3014 3015 3017 3019 3019 3021 3023 3025 3027 3029 3030 3033 3034 3035 3036 3037 3037 3037 3037 3035 3035 3034 3034 3032 3029 3029 3028 3026 3024 3023 3021 3019 3022 3016 3013 3010 3001 2989 2977 2967 2955 2949 2944 2944
3018 3019 3020 3020 3021 3022 3024 3025 3026 3028 3030 3032 3034 3036 3036 3037 3039 3038 3038 3037 3036 3036 3036 3034 3034 3031 3030 3032 3031 3028 3027 3026 3023 3022 3021 3017 3014 3002 2990 2979 2969 2954 2952 2948 2949
3022 3022 3023 3024 3025 3026 3026 3027 3028 3030 3032 3033 3035 3037 3037 3038 3038 3039 3039 3039 3038 3037 3037 3036 3035 3034 3035 3037 3035 3033 3032 3029 3025 3024 3024 3022 3017 3005 2993 2983 2973 2960 2952 2954 2952
3023 3024 3025 3027 3028 3028 3028 3028 3030 3031 3032 3034 3036 3037 3039 3039 3040 3040 3040 3040 3040 3039 3039 3039 3039 3038 3039 3039 3038 3037 3034 3031 3027 3026 3026 3023 3017 3010 3001 2991 2983 2974 2964 2963 2962
3027 3026 3026 3028 3030 3030 3030 3030 3032 3033 3034 3035 3037 3038 3039 3039 3040 3041 3042 3042 3041 3041 3040 3041 3042 3043 3042 3042 3041 3038 3036 3034 3031 3029 3028 3025 3020 3017 3009 3002 2991 2983 2975 2973 2972
3030 3029 3029 3030 3031 3032 3032 3033 3034 3035 3036 3037 3038 3040 3040 3042 3041 3042 3043 3043 3043 3043 3042 3041 3043 3043 3042 3041 3041 3042 3039 3036 3035 3033 3030 3026 3026 3021 3016 3006 2995 2989 2985 2982 2981